sat.trackr.live / text

‹ back to catalog

STARLINK-32144

NORAD 60269 · 2024-131Q

PAYLOAD ACTIVE UNKNOWN

§ Identity

Operator
Country
US
Launch date
2024-07-27
Launch site
AFETR
Launch vehicle
Mass (kg)
RCS (m²)

Purposes: comms

External: N2YO · Heavens-Above · Gunter

§ Orbital elements

Epoch: 2026-09-21T06:17:36.879360Z

Period
94.01 min
Inclination
53.1591°
Eccentricity
0.0000702
Mean motion
15.31703548 rev/d
Perigee alt
470.2 km
Apogee alt
471.2 km
Semi-major
6,848.9 km
B*
-7.5716e-6
RAAN
222.4539°
Arg perigee
89.8641°
Mean anomaly
270.2441°
Rev number
12,173

§ Raw data

STARLINK-321441 60269U 24131Q   26264.26223240 -.00000600  00000+0 -75716-5 0  99932 60269  53.1591 222.4539 0000702  89.8641 270.2441 15.31703548121732

JSON: /api/v1/satellites/60269 · /tle

For live sub-satellite position, see the globe view (requires WebGL).

§ Visibility from observer

Set your observer location to see the next 7 days of passes ≥ 10°. The values pass through the URL so the page stays shareable.

No JS? Fill the form by hand. The geolocation button needs JavaScript.